Location: Korczew
(51.3586°N, 19.4491°E)
Time: 08:21:12
(UTC+00:00)

Cosmos 1934 Rocket - Pass Details

Date: 19 May 2025
Orbit: 938 x 997 km, 83.0° (Epoch: 16 June)

Event Time Altitude Azimuth Distance (km) Brightness Sun altitude
Rises 21:23:08 0° 350° (N) 3,666 8.7 -16.8°
Reaches altitude 10° 21:25:38 10° 351° (N) 2,724 7.6 -16.9°
Maximum altitude 21:31:54 84° 80° (E) 992 4.0 -17.2°
Enters shadow 21:35:33 27° 167° (SSE) 1,787 4.8 -17.3°
